Hourly Data Report for October 16, 2015

All times are specified in Local Standard Time (LST). Add 1 hour to adjust for Daylight Saving Time where and when it is observed.

ARVIAT A
NUNAVUT

61°05'38.000" N
94°04'18.000" W
10.40 m
2300427
71174
YEK

Download Data

Hourly Data (October 2015)
Hourly Data Report for October 16, 2015
Temp Definition
°C
Dew Point Temp Definition
°C
Rel Hum Definition
%
Wind Dir Definition
10's deg

Wind Spd Definition
km/h
Visibility Definition
km
Stn Press Definition
kPa
Hmdx Definition


Wind Chill Definition


Weather Definition


TIME
00:00 Legend Double Dagger -9.2 -10.6 90 31 24 16.1 102.12   -18 LegendNANA
01:00 Legend Double Dagger -8.3 -10.0 88 30 24 16.1 102.10   -16 LegendNANA
02:00 Legend Double Dagger -7.6 -9.3 88 33 30 16.1 102.11   -16 Snow
03:00 Legend Double Dagger -8.8 -10.7 86 33 24 16.1 102.15   -17 LegendNANA
04:00 Legend Double Dagger -8.7 -10.8 85 30 32 14.5 102.15   -18 Snow
05:00 Legend Double Dagger -8.7 -11.9 78 33 32 16.1 102.18   -18 Snow
06:00 Legend Double Dagger -8.3 -11.0 81 35 24 16.1 102.22   -16 Snow
07:00 Legend Double Dagger -8.1 -10.3 84 32 17 16.1 102.23   -15 Snow
08:00 Legend Double Dagger -7.8 -9.3 89 30 22 9.7 102.22   -15 Snow
09:00 Legend Double Dagger -7.3 -8.8 89 30 24 16.1 102.21   -15 Snow
10:00 Legend Double Dagger -6.6 -7.8 91 31 26 16.1 102.22   -15 Snow
11:00 Legend Double Dagger -6.3 -9.0 81 31 28 16.1 102.23   -14 LegendNANA
12:00 Legend Double Dagger -6.1 -9.7 76 31 30 16.1 102.25   -14 LegendNANA
13:00 Legend Double Dagger -6.2 -9.8 76 33 28 16.1 102.25   -14 Snow
14:00 Legend Double Dagger -6.3 -9.6 78 33 28 16.1 102.27   -14 Snow
15:00 Legend Double Dagger -6.5 -9.9 77 32 30 16.1 102.27   -15 Snow
16:00 Legend Double Dagger -6.7 -9.4 81 34 32 16.1 102.29   -15 Snow
17:00 Legend Double Dagger -7.0 -9.6 82 31 18 16.1 102.31   -14 LegendNANA
18:00 Legend Double Dagger -7.4 -9.7 84 30 24 16.1 102.32   -15 Snow
19:00 Legend Double Dagger -7.1 -9.2 85 29 21 16.1 102.29   -14 Snow
20:00 Legend Double Dagger -6.8 -8.6 87 30 30 16.1 102.27   -15 Snow
21:00 Legend Double Dagger -6.6 -8.0 90 31 24 16.1 102.26   -14 LegendNANA
22:00 Legend Double Dagger -8.9 -9.6 95 30 24 16.1 102.25   -17 LegendNANA
23:00 Legend Double Dagger -9.7 -10.5 94 30 21 16.1 102.24   -18 LegendNANA

Notes on Data Quality.

Legend

  • E = Estimated
  • M = Missing
  • NA = Not Available
  • ‡ = Partner data that is not subject to review by the National Climate Archives
Date modified: